Akron Canton, OH

3:03 PM EST on February 21, 2018 (GMT -0500)
Akron-Canton Regional

Weather History for KCAK - November, 2011

Change the Weather History Date:

Monday, November 7, 2011

  Actual Average Record
Temperature  
Mean Temperature 52 °F 45 °F  
Max Temperature 61 °F 53 °F 76 °F (1938)
Min Temperature 42 °F 37 °F 18 °F (1971)
Degree Days  
Heating Degree Days 13 20  
Month to date heating degree days 121 135  
Since 1 July heating degree days 599 690  
Cooling Degree Days 0 0  
Month to date cooling degree days 0 0  
Year to date cooling degree days 911 652  
Growing Degree Days 2 (Base 50)    
Moisture  
Dew Point 39 °F    
Average Humidity 63    
Maximum Humidity 71    
Minimum Humidity 54    
Precipitation  
Precipitation 0.00 in 0.10 in 0.80 in (1972)
Month to date precipitation 0.00 0.76  
Year to date precipitation 48.77 34.24  
Snow  
Snow 0.00 in 0.10 in - ()
Month to date snowfall 0.0 0.4  
Since 1 July snowfall T 0.8  
Since 1 September snowfall T 0.8  
Snow Depth 0.00 in    
Sea Level Pressure  
Sea Level Pressure 30.29 in    
Wind  
Wind Speed 7 mph (SSW)    
Max Wind Speed 13 mph    
Max Gust Speed 15 mph    
Visibility 10 miles    
Events      
T = Trace of Precipitation, MM = Missing Value Source: NWS Daily Summary

Daily Weather History Graph

Daily Weather History Graph

Search for Another Location

Airport or City:

Trip Planner

Search our weather history database for the weather conditions in past years. The results will help you decide how hot, cold, wet, or windy it might be!

Date:

Astronomy

Nov. 07, 2011 Rise Set
Actual Time 7:03 AM EST 5:15 PM EST
Civil Twilight 6:34 AM EST 5:43 PM EST
Nautical Twilight 6:01 AM EST 6:16 PM EST
Astronomical Twilight 5:29 AM EST 6:48 PM EST
Moon 3:26 PM EST (11/7) 4:03 AM EST (11/7)
Length of Visible Light 11h 09m
Length of Day
10h 11m
Waxing Gibbous, 91% of the Moon is Illuminated
Nov 7
Waxing Gibbous
Nov 10
Full
Nov 18
Last Quarter
Nov 25
New
Dec 2
First Quarter

Hourly Weather History & Observations

Time (EST) Temp. Windchill Dew Point Humidity Pressure Visibility Wind Dir Wind Speed Gust Speed Precip Events Conditions
12:51 AM 43.0 °F 38.2 °F 33.1 °F 68% 30.28 in 10.0 mi SSW 8.1 mph - N/A   Clear
1:51 AM 44.1 °F 40.1 °F 33.1 °F 65% 30.29 in 10.0 mi SSW 6.9 mph - N/A   Clear
2:51 AM 45.0 °F 41.8 °F 34.0 °F 65% 30.29 in 10.0 mi South 5.8 mph - N/A   Mostly Cloudy
3:51 AM 46.0 °F 42.5 °F 33.1 °F 61% 30.29 in 10.0 mi SW 6.9 mph - N/A   Mostly Cloudy
4:51 AM 48.0 °F - 35.1 °F 61% 30.30 in 10.0 mi SSW 5.8 mph - N/A   Overcast
5:51 AM 48.0 °F - 35.1 °F 61% 30.31 in 10.0 mi South 6.9 mph - N/A   Overcast
6:51 AM 48.2 °F - 33.8 °F 58% 30.30 in 10.0 mi South 6.9 mph - N/A   Overcast
7:51 AM 48.9 °F - 34.0 °F 56% 30.32 in 10.0 mi SW 9.2 mph - N/A   Mostly Cloudy
8:51 AM 50.0 °F - 35.1 °F 57% 30.33 in 10.0 mi SSW 6.9 mph - N/A   Mostly Cloudy
9:51 AM 51.1 °F - 36.0 °F 56% 30.34 in 10.0 mi SSW 8.1 mph - N/A   Overcast
10:51 AM 53.1 °F - 37.9 °F 57% 30.34 in 10.0 mi South 9.2 mph - N/A   Mostly Cloudy
11:51 AM 55.0 °F - 39.0 °F 55% 30.32 in 10.0 mi South 9.2 mph - N/A   Mostly Cloudy
12:51 PM 57.2 °F - 42.8 °F 59% 30.29 in 10.0 mi SW 8.1 mph - N/A   Overcast
1:18 PM 57.2 °F - 42.8 °F 59% 30.28 in 10.0 mi SW 10.4 mph - N/A   Mostly Cloudy
1:51 PM 59.0 °F - 44.1 °F 58% 30.29 in 10.0 mi SW 9.2 mph - N/A   Mostly Cloudy
2:51 PM 60.1 °F - 45.0 °F 57% 30.27 in 10.0 mi SSW 9.2 mph - N/A   Mostly Cloudy
3:51 PM 60.1 °F - 46.0 °F 60% 30.26 in 10.0 mi South 8.1 mph - N/A   Mostly Cloudy
4:51 PM 60.1 °F - 46.0 °F 60% 30.26 in 10.0 mi Calm Calm - N/A   Scattered Clouds
5:51 PM 57.0 °F - 44.1 °F 62% 30.27 in 10.0 mi Calm Calm - N/A   Mostly Cloudy
6:51 PM 55.9 °F - 44.1 °F 64% 30.27 in 10.0 mi SSW 3.5 mph - N/A   Scattered Clouds
7:51 PM 53.1 °F - 44.1 °F 71% 30.27 in 10.0 mi SSW 5.8 mph - N/A   Scattered Clouds
8:51 PM 51.1 °F - 43.0 °F 74% 30.27 in 10.0 mi South 6.9 mph - N/A   Scattered Clouds
9:51 PM 51.1 °F - 42.1 °F 71% 30.27 in 10.0 mi South 8.1 mph - N/A   Scattered Clouds
10:51 PM 51.1 °F - 42.1 °F 71% 30.26 in 10.0 mi South 8.1 mph - N/A   Scattered Clouds
11:51 PM 51.1 °F - 41.0 °F 68% 30.25 in 10.0 mi SSW 6.9 mph - N/A   Partly Cloudy